P4MALC KORF-KMHT

Flight info

Callsign P4MALC
Flight time N/A
Altitude 25000
Route HOLND1 KALDA CONFR HOWYU ECOIL Q481 ZIGGI BAYYS GDM
Aircraft BT36/L-BDFGLORY/S

Departure

Time 2026-04-24 15:05
Airport Norfolk International Airport (KORF)

Arrival

Time N/A
Airport Manchester-Boston Regional Airport (KMHT)
Time Latitude Longitude Altitude Speed Heading
2026-04-24 13:57 36.88676 -76.20172 -3 ft 0 kts 41°
2026-04-24 14:54 36.88706 -76.20160 -3 ft 10 kts 347°
2026-04-24 14:55 36.88759 -76.20137 -3 ft 16 kts 36°
2026-04-24 14:55 36.88859 -76.19977 3 ft 18 kts 52°
2026-04-24 14:55 36.88929 -76.19866 0 ft 21 kts 354°
2026-04-24 14:55 36.89100 -76.19865 -3 ft 28 kts
2026-04-24 14:56 36.89303 -76.19862 -2 ft 29 kts 360°
2026-04-24 14:56 36.89429 -76.19860 -1 ft 0 kts
2026-04-24 15:03 36.89454 -76.19860 -4 ft 5 kts
2026-04-24 15:03 36.89457 -76.19860 -3 ft 0 kts
2026-04-24 15:04 36.89486 -76.19860 0 ft 10 kts 358°
2026-04-24 15:04 36.89526 -76.19921 2 ft 14 kts 229°
2026-04-24 15:04 36.89443 -76.20008 3 ft 49 kts 218°
2026-04-24 15:04 36.88751 -76.20614 184 ft 115 kts 217°
2026-04-24 15:05 36.88075 -76.21141 768 ft 110 kts 214°
2026-04-24 15:05 36.87372 -76.21586 1296 ft 118 kts 213°
2026-04-24 15:05 36.86649 -76.22072 1861 ft 117 kts 213°
2026-04-24 15:05 36.85946 -76.22601 2361 ft 122 kts 220°
2026-04-24 15:06 36.85226 -76.23178 2924 ft 123 kts 216°
2026-04-24 15:06 36.84487 -76.23725 3448 ft 123 kts 218°
2026-04-24 15:06 36.83821 -76.24343 4125 ft 113 kts 241°
2026-04-24 15:06 36.83652 -76.25201 4725 ft 100 kts 289°
2026-04-24 15:07 36.84061 -76.25889 5278 ft 96 kts 314°
2026-04-24 15:07 36.84597 -76.26392 5801 ft 104 kts 334°
2026-04-24 15:07 36.85380 -76.26457 6291 ft 124 kts
2026-04-24 15:07 36.86135 -76.25840 6817 ft 136 kts 40°
2026-04-24 15:08 36.86761 -76.25014 7442 ft 127 kts 36°
2026-04-24 15:08 36.87385 -76.24259 8060 ft 123 kts 35°
2026-04-24 15:08 36.87995 -76.23531 8701 ft 120 kts 34°
2026-04-24 15:08 36.88595 -76.22821 9316 ft 119 kts 34°
2026-04-24 15:09 36.89203 -76.22103 9907 ft 121 kts 34°
2026-04-24 15:09 36.89824 -76.21368 10440 ft 123 kts 35°
2026-04-24 15:09 36.90449 -76.20632 10991 ft 123 kts 34°
2026-04-24 15:09 36.91066 -76.19906 11539 ft 123 kts 35°
2026-04-24 15:10 36.91689 -76.19173 12114 ft 124 kts 35°
2026-04-24 15:10 36.92331 -76.18416 12692 ft 129 kts 36°
2026-04-24 15:10 36.92990 -76.17634 13287 ft 131 kts 36°
2026-04-24 15:10 36.93652 -76.16858 13867 ft 130 kts 36°
2026-04-24 15:11 36.94305 -76.16088 14399 ft 128 kts 36°
2026-04-24 15:11 36.94950 -76.15328 14932 ft 126 kts 35°
2026-04-24 15:11 36.95584 -76.14582 15476 ft 124 kts 34°
2026-04-24 15:11 36.96230 -76.13819 15947 ft 130 kts 35°
2026-04-24 15:12 36.96901 -76.13025 16425 ft 135 kts 35°
2026-04-24 15:12 36.98298 -76.11374 17419 ft 142 kts 35°
2026-04-24 15:12 36.99018 -76.10513 17931 ft 145 kts 39°
2026-04-24 15:13 36.99609 -76.09454 18429 ft 150 kts 49°
2026-04-24 15:13 37.00190 -76.08371 18890 ft 150 kts 47°
2026-04-24 15:13 37.00776 -76.07292 19356 ft 150 kts 47°
2026-04-24 15:13 37.01352 -76.06228 19823 ft 149 kts 47°
2026-04-24 15:14 37.01928 -76.05162 20299 ft 147 kts 46°
2026-04-24 15:14 37.02497 -76.04112 20756 ft 144 kts 46°
2026-04-24 15:14 37.03059 -76.03074 21174 ft 144 kts 45°
2026-04-24 15:14 37.03623 -76.02033 21564 ft 144 kts 45°
2026-04-24 15:15 37.04184 -76.00993 21943 ft 144 kts 45°
2026-04-24 15:15 37.04734 -75.99976 22324 ft 141 kts 44°
2026-04-24 15:15 37.05288 -75.98954 22630 ft 144 kts 44°
2026-04-24 15:15 37.05857 -75.97901 22902 ft 148 kts 44°
2026-04-24 15:16 37.06436 -75.96827 23173 ft 150 kts 44°
2026-04-24 15:16 37.07020 -75.95744 23445 ft 150 kts 44°
2026-04-24 15:16 37.07604 -75.94664 23681 ft 149 kts 44°
2026-04-24 15:16 37.08184 -75.93589 23900 ft 148 kts 44°
2026-04-24 15:17 37.08757 -75.92529 24105 ft 147 kts 43°
2026-04-24 15:17 37.09339 -75.91452 24243 ft 152 kts 44°
2026-04-24 15:17 37.09928 -75.90357 24380 ft 154 kts 44°
2026-04-24 15:17 37.10334 -75.89604 24482 ft 155 kts 44°
2026-04-24 15:18 37.11069 -75.88033 24673 ft 159 kts 50°
2026-04-24 15:18 37.11606 -75.86822 24815 ft 159 kts 49°
2026-04-24 15:18 37.12148 -75.85603 24898 ft 164 kts 49°
2026-04-24 15:18 37.12714 -75.84324 24918 ft 172 kts 50°
2026-04-24 15:19 37.13304 -75.82983 24913 ft 179 kts 51°
2026-04-24 15:19 37.13915 -75.81593 24914 ft 185 kts 51°
2026-04-24 15:19 37.14328 -75.80654 24913 ft 187 kts 51°
2026-04-24 15:19 37.15173 -75.78729 24910 ft 189 kts 51°
2026-04-24 15:20 37.15819 -75.77270 24911 ft 197 kts 51°
2026-04-24 15:20 37.16268 -75.76260 24908 ft 203 kts 52°
2026-04-24 15:20 37.16959 -75.74678 24911 ft 212 kts 52°
2026-04-24 15:20 37.17736 -75.73083 24911 ft 211 kts 39°
2026-04-24 15:21 37.18841 -75.71937 24906 ft 203 kts 19°
2026-04-24 15:21 37.20130 -75.71333 24910 ft 194 kts
2026-04-24 15:21 37.21444 -75.71147 24908 ft 193 kts 356°
2026-04-24 15:21 37.22789 -75.70963 24908 ft 195 kts 356°
2026-04-24 15:22 37.24144 -75.70777 24910 ft 196 kts 356°
2026-04-24 15:22 37.25508 -75.70594 24905 ft 197 kts 356°
2026-04-24 15:22 37.26873 -75.70411 24904 ft 197 kts 356°
2026-04-24 15:23 37.29609 -75.70043 24906 ft 198 kts 356°
2026-04-24 15:23 37.32350 -75.69674 24902 ft 198 kts 356°
2026-04-24 15:23 37.33721 -75.69490 24904 ft 198 kts 356°
2026-04-24 15:24 37.37833 -75.68936 24904 ft 198 kts 356°
2026-04-24 15:25 37.40571 -75.68567 24910 ft 198 kts 356°
2026-04-24 15:25 37.43290 -75.68201 24904 ft 198 kts 356°
2026-04-24 15:26 37.47403 -75.67645 24910 ft 198 kts 356°
2026-04-24 15:27 37.51510 -75.67091 24907 ft 198 kts 356°
2026-04-24 15:27 37.55595 -75.66538 24911 ft 197 kts 356°
2026-04-24 15:28 37.61047 -75.65799 24913 ft 197 kts 356°
2026-04-24 15:29 37.63764 -75.65431 24911 ft 196 kts 356°
2026-04-24 15:30 37.67821 -75.64880 24910 ft 196 kts 356°
2026-04-24 15:31 37.72793 -75.64205 24901 ft 196 kts 356°
2026-04-24 15:32 37.78671 -75.63405 24903 ft 196 kts 356°
2026-04-24 15:33 37.84072 -75.62652 24906 ft 198 kts
2026-04-24 15:33 37.88059 -75.60700 24909 ft 205 kts 11°
2026-04-24 15:34 37.90714 -75.59359 24913 ft 205 kts 11°
2026-04-24 15:35 37.94696 -75.57344 24914 ft 205 kts 11°
2026-04-24 15:35 37.97347 -75.56001 24912 ft 205 kts 11°
2026-04-24 15:35 37.98673 -75.55328 24912 ft 205 kts 11°
2026-04-24 15:36 38.00000 -75.54655 24914 ft 205 kts 11°
2026-04-24 15:36 38.02659 -75.53306 24913 ft 205 kts 11°
2026-04-24 15:36 38.03973 -75.52639 24911 ft 205 kts 11°
2026-04-24 15:37 38.05301 -75.51964 24911 ft 205 kts 11°
2026-04-24 15:37 38.06624 -75.51292 24910 ft 205 kts 11°
2026-04-24 15:37 38.07949 -75.50619 24909 ft 205 kts 11°
2026-04-24 15:37 38.09276 -75.49944 24907 ft 205 kts 11°
2026-04-24 15:38 38.10598 -75.49272 24911 ft 205 kts 11°
2026-04-24 15:38 38.11921 -75.48598 24906 ft 205 kts 11°
2026-04-24 15:38 38.13243 -75.47925 24906 ft 205 kts 11°
2026-04-24 15:38 38.14565 -75.47252 24908 ft 205 kts 11°
2026-04-24 15:39 38.15888 -75.46578 24907 ft 205 kts 10°
2026-04-24 15:39 38.17215 -75.45902 24906 ft 205 kts 11°
2026-04-24 15:39 38.18522 -75.45235 24909 ft 204 kts 11°
2026-04-24 15:39 38.19840 -75.44563 24908 ft 205 kts 11°
2026-04-24 15:40 38.21163 -75.43888 24911 ft 205 kts 10°
2026-04-24 15:40 38.22484 -75.43213 24912 ft 205 kts 11°
2026-04-24 15:40 38.23808 -75.42537 24910 ft 204 kts 11°
2026-04-24 15:40 38.25131 -75.41861 24912 ft 204 kts 11°
2026-04-24 15:41 38.26438 -75.41193 24912 ft 204 kts 10°
2026-04-24 15:41 38.27711 -75.40323 24912 ft 213 kts 22°
2026-04-24 15:41 38.28944 -75.39261 24913 ft 213 kts 22°
2026-04-24 15:41 38.30175 -75.38220 24913 ft 213 kts 22°
2026-04-24 15:42 38.31414 -75.37181 24913 ft 213 kts 22°
2026-04-24 15:42 38.32633 -75.36155 24909 ft 213 kts 22°
2026-04-24 15:42 38.33868 -75.35114 24911 ft 213 kts 22°
2026-04-24 15:42 38.35102 -75.34073 24910 ft 213 kts 22°
2026-04-24 15:43 38.36342 -75.33026 24912 ft 213 kts 22°
2026-04-24 15:43 38.37579 -75.31984 24911 ft 213 kts 21°
2026-04-24 15:43 38.38813 -75.30942 24911 ft 213 kts 21°
2026-04-24 15:43 38.40047 -75.29898 24916 ft 213 kts 22°
2026-04-24 15:44 38.41281 -75.28855 24920 ft 213 kts 21°
2026-04-24 15:44 38.42517 -75.27811 24916 ft 213 kts 21°
2026-04-24 15:44 38.43750 -75.26769 24917 ft 213 kts 21°
2026-04-24 15:44 38.44971 -75.25735 24919 ft 212 kts 21°
2026-04-24 15:45 38.46199 -75.24696 24916 ft 212 kts 22°
2026-04-24 15:45 38.47435 -75.23649 24915 ft 212 kts 22°
2026-04-24 15:45 38.48691 -75.22707 24917 ft 208 kts 17°
2026-04-24 15:45 38.49957 -75.21798 24918 ft 208 kts 18°
2026-04-24 15:46 38.51218 -75.20882 24918 ft 208 kts 18°
2026-04-24 15:46 38.52480 -75.19969 24922 ft 208 kts 18°
2026-04-24 15:46 38.53728 -75.19068 24923 ft 208 kts 18°
2026-04-24 15:46 38.54990 -75.18158 24925 ft 208 kts 18°
2026-04-24 15:47 38.56251 -75.17247 24928 ft 208 kts 18°
2026-04-24 15:47 38.57512 -75.16334 24925 ft 208 kts 18°
2026-04-24 15:47 38.58773 -75.15423 24924 ft 208 kts 18°
2026-04-24 15:47 38.60032 -75.14512 24926 ft 208 kts 18°
2026-04-24 15:48 38.61290 -75.13602 24927 ft 207 kts 18°
2026-04-24 15:48 38.62549 -75.12691 24925 ft 208 kts 18°
2026-04-24 15:48 38.63791 -75.11791 24925 ft 207 kts 18°
2026-04-24 15:48 38.65051 -75.10878 24927 ft 207 kts 18°
2026-04-24 15:49 38.66301 -75.09972 24929 ft 207 kts 18°
2026-04-24 15:49 38.67553 -75.09065 24928 ft 207 kts 18°
2026-04-24 15:49 38.68802 -75.08158 24927 ft 206 kts 18°
2026-04-24 15:49 38.70053 -75.07251 24924 ft 207 kts 18°
2026-04-24 15:50 38.71304 -75.06342 24926 ft 206 kts 18°
2026-04-24 15:50 38.72552 -75.05436 24927 ft 206 kts 18°
2026-04-24 15:50 38.73799 -75.04529 24923 ft 206 kts 18°
2026-04-24 15:50 38.75049 -75.03621 24927 ft 206 kts 18°
2026-04-24 15:51 38.76281 -75.02725 24925 ft 206 kts 18°
2026-04-24 15:51 38.77539 -75.01810 24924 ft 206 kts 18°
2026-04-24 15:51 38.78769 -75.00915 24927 ft 205 kts 17°
2026-04-24 15:51 38.80012 -75.00010 24927 ft 205 kts 18°
2026-04-24 15:52 38.81257 -74.99103 24928 ft 205 kts 18°
2026-04-24 15:52 38.82498 -74.98198 24926 ft 205 kts 17°
2026-04-24 15:52 38.83738 -74.97295 24929 ft 205 kts 17°
2026-04-24 15:52 38.84980 -74.96390 24928 ft 205 kts 18°
2026-04-24 15:53 38.86218 -74.95487 24926 ft 205 kts 17°
2026-04-24 15:53 38.87441 -74.94594 24921 ft 205 kts 17°
2026-04-24 15:53 38.88678 -74.93691 24929 ft 204 kts 17°
2026-04-24 15:53 38.89916 -74.92786 24930 ft 204 kts 18°
2026-04-24 15:54 38.91149 -74.91886 24931 ft 204 kts 18°
2026-04-24 15:54 38.92385 -74.90981 24933 ft 204 kts 17°
2026-04-24 15:54 38.93619 -74.90080 24933 ft 204 kts 18°
2026-04-24 15:54 38.94856 -74.89175 24925 ft 204 kts 17°
2026-04-24 15:55 38.96077 -74.88281 24926 ft 204 kts 17°
2026-04-24 15:55 38.97313 -74.87376 24934 ft 204 kts 18°
2026-04-24 15:55 38.98545 -74.86473 24931 ft 204 kts 17°
2026-04-24 15:55 38.99779 -74.85569 24932 ft 204 kts 17°
2026-04-24 15:56 39.01012 -74.84665 24928 ft 204 kts 17°
2026-04-24 15:56 39.02242 -74.83763 24929 ft 203 kts 17°
2026-04-24 15:56 39.03472 -74.82861 24932 ft 203 kts 17°
2026-04-24 15:56 39.04701 -74.81959 24928 ft 203 kts 17°
2026-04-24 15:57 39.05915 -74.81067 24932 ft 203 kts 17°
2026-04-24 15:57 39.07141 -74.80166 24932 ft 203 kts 17°
2026-04-24 15:57 39.07971 -74.79557 24929 ft 203 kts 17°
2026-04-24 15:57 39.09603 -74.78358 24931 ft 203 kts 17°
2026-04-24 15:58 39.10829 -74.77456 24929 ft 203 kts 17°
2026-04-24 15:58 39.12054 -74.76554 24928 ft 203 kts 17°
2026-04-24 15:58 39.13282 -74.75651 24926 ft 203 kts 17°
2026-04-24 15:58 39.14492 -74.74759 24925 ft 203 kts 17°
2026-04-24 15:59 39.15716 -74.73858 24926 ft 202 kts 17°
2026-04-24 15:59 39.16955 -74.72945 24925 ft 202 kts 17°
2026-04-24 15:59 39.18162 -74.72055 24921 ft 203 kts 17°
2026-04-24 15:59 39.19388 -74.71151 24922 ft 202 kts 17°
2026-04-24 16:00 39.20613 -74.70247 24917 ft 203 kts 17°
2026-04-24 16:00 39.21833 -74.69346 24914 ft 202 kts 17°
2026-04-24 16:00 39.23061 -74.68440 24911 ft 202 kts 17°
2026-04-24 16:00 39.24283 -74.67537 24910 ft 202 kts 17°
2026-04-24 16:01 39.25504 -74.66634 24908 ft 202 kts 17°
2026-04-24 16:01 39.26728 -74.65730 24908 ft 202 kts 17°
2026-04-24 16:01 39.27934 -74.64838 24909 ft 202 kts 17°
2026-04-24 16:01 39.29153 -74.63935 24905 ft 202 kts 17°
2026-04-24 16:02 39.30374 -74.63032 24902 ft 202 kts 17°
2026-04-24 16:02 39.31592 -74.62130 24905 ft 201 kts 17°
2026-04-24 16:02 39.32811 -74.61227 24905 ft 202 kts 17°
2026-04-24 16:02 39.34026 -74.60326 24904 ft 201 kts 17°
2026-04-24 16:03 39.35240 -74.59426 24903 ft 201 kts 17°
2026-04-24 16:03 39.36439 -74.58537 24902 ft 201 kts 17°
2026-04-24 16:03 39.37650 -74.57639 24901 ft 201 kts 17°
2026-04-24 16:03 39.38859 -74.56740 24904 ft 200 kts 17°
2026-04-24 16:04 39.40068 -74.55842 24902 ft 201 kts 17°
2026-04-24 16:04 39.41280 -74.54943 24901 ft 200 kts 17°
2026-04-24 16:04 39.42491 -74.54044 24903 ft 200 kts 17°
2026-04-24 16:04 39.43697 -74.53146 24897 ft 200 kts 17°
2026-04-24 16:05 39.46105 -74.51355 24901 ft 199 kts 17°
2026-04-24 16:05 39.47307 -74.50460 24902 ft 199 kts 17°
2026-04-24 16:06 39.49700 -74.48677 24900 ft 199 kts 17°
2026-04-24 16:06 39.50902 -74.47782 24901 ft 199 kts 17°
2026-04-24 16:06 39.53303 -74.45991 24902 ft 199 kts 17°
2026-04-24 16:07 39.54491 -74.45104 24907 ft 199 kts 17°
2026-04-24 16:07 39.55705 -74.44198 24904 ft 199 kts 17°
2026-04-24 16:07 39.58089 -74.42417 24907 ft 198 kts 17°
2026-04-24 16:08 39.59284 -74.41524 24906 ft 198 kts 17°
2026-04-24 16:08 39.61674 -74.39737 24909 ft 198 kts 17°
2026-04-24 16:09 39.64055 -74.37954 24911 ft 197 kts 17°
2026-04-24 16:09 39.65231 -74.37074 24913 ft 197 kts 17°
2026-04-24 16:09 39.66035 -74.36472 24913 ft 197 kts 17°
2026-04-24 16:09 39.67608 -74.35292 24926 ft 197 kts 17°
2026-04-24 16:10 39.71167 -74.32623 24927 ft 197 kts 16°
2026-04-24 16:11 39.73136 -74.31144 24932 ft 196 kts 16°
2026-04-24 16:11 39.74713 -74.29959 24933 ft 196 kts 16°
2026-04-24 16:11 39.75495 -74.29372 24933 ft 196 kts 16°
2026-04-24 16:12 39.77862 -74.27593 24938 ft 196 kts 16°
2026-04-24 16:12 39.79028 -74.26715 24938 ft 196 kts 16°
2026-04-24 16:12 39.81386 -74.24939 24939 ft 195 kts 16°
2026-04-24 16:13 39.82560 -74.24055 24937 ft 195 kts 16°
2026-04-24 16:13 39.84819 -74.21972 24940 ft 202 kts 24°
2026-04-24 16:14 39.87038 -74.19730 24939 ft 201 kts 23°
2026-04-24 16:14 39.88149 -74.18612 24942 ft 201 kts 23°
2026-04-24 16:14 39.90364 -74.16378 24942 ft 201 kts 23°
2026-04-24 16:15 39.91097 -74.15638 24937 ft 201 kts 23°
2026-04-24 16:15 39.93685 -74.13025 24937 ft 201 kts 23°
2026-04-24 16:16 39.95883 -74.10805 24938 ft 201 kts 23°
2026-04-24 16:16 39.96993 -74.09682 24938 ft 201 kts 22°
2026-04-24 16:17 40.00303 -74.06333 24940 ft 201 kts 22°
2026-04-24 16:17 40.02508 -74.04098 24936 ft 200 kts 22°
2026-04-24 16:18 40.04712 -74.01864 24937 ft 200 kts 22°
2026-04-24 16:18 40.06993 -74.00021 24935 ft 192 kts 14°
2026-04-24 16:18 40.08152 -73.99158 24931 ft 192 kts 14°
2026-04-24 16:19 40.10469 -73.97414 24930 ft 192 kts 14°
2026-04-24 16:19 40.11629 -73.96543 24931 ft 192 kts 14°
2026-04-24 16:20 40.13943 -73.94803 24934 ft 192 kts 14°
2026-04-24 16:20 40.16254 -73.93064 24932 ft 192 kts 14°
2026-04-24 16:20 40.17409 -73.92194 24933 ft 191 kts 14°
2026-04-24 16:21 40.19705 -73.90464 24931 ft 191 kts 14°
2026-04-24 16:21 40.20857 -73.89595 24933 ft 191 kts 14°
2026-04-24 16:21 40.22006 -73.88729 24933 ft 191 kts 14°
2026-04-24 16:22 40.23159 -73.87859 24934 ft 191 kts 14°
2026-04-24 16:22 40.25458 -73.86124 24932 ft 191 kts 14°
2026-04-24 16:22 40.26605 -73.85257 24933 ft 190 kts 14°
2026-04-24 16:23 40.27754 -73.84389 24935 ft 190 kts 14°
2026-04-24 16:23 40.28888 -73.83532 24933 ft 190 kts 14°
2026-04-24 16:23 40.30033 -73.82666 24933 ft 190 kts 14°
2026-04-24 16:24 40.32317 -73.80937 24930 ft 189 kts 14°
2026-04-24 16:24 40.33457 -73.80074 24929 ft 189 kts 14°
2026-04-24 16:24 40.34595 -73.79211 24933 ft 189 kts 14°
2026-04-24 16:24 40.35734 -73.78349 24937 ft 188 kts 13°
2026-04-24 16:25 40.36865 -73.77491 24931 ft 188 kts 13°
2026-04-24 16:25 40.37997 -73.76633 24931 ft 188 kts 13°
2026-04-24 16:25 40.39130 -73.75774 24933 ft 188 kts 13°
2026-04-24 16:26 40.41388 -73.74060 24929 ft 187 kts 13°
2026-04-24 16:26 40.42514 -73.73205 24930 ft 187 kts 13°
2026-04-24 16:26 40.44762 -73.71496 24927 ft 186 kts 13°
2026-04-24 16:27 40.45883 -73.70643 24931 ft 186 kts 13°
2026-04-24 16:27 40.47003 -73.69792 24933 ft 186 kts 13°
2026-04-24 16:27 40.48122 -73.68940 24932 ft 186 kts 13°
2026-04-24 16:27 40.49239 -73.68089 24929 ft 186 kts 13°
2026-04-24 16:28 40.50345 -73.67247 24931 ft 185 kts 13°
2026-04-24 16:28 40.51458 -73.66399 24932 ft 185 kts 13°
2026-04-24 16:28 40.53688 -73.64699 24930 ft 185 kts 13°
2026-04-24 16:29 40.54799 -73.63852 24928 ft 185 kts 13°
2026-04-24 16:29 40.55909 -73.63005 24931 ft 184 kts 13°
2026-04-24 16:29 40.58131 -73.61308 24929 ft 184 kts 13°
2026-04-24 16:30 40.60351 -73.59612 24927 ft 184 kts 13°
2026-04-24 16:30 40.61462 -73.58762 24928 ft 184 kts 13°
2026-04-24 16:30 40.62551 -73.57929 24927 ft 184 kts 12°
2026-04-24 16:31 40.63656 -73.57084 24935 ft 184 kts 12°
2026-04-24 16:31 40.64760 -73.56239 24936 ft 184 kts 12°
2026-04-24 16:31 40.65864 -73.55394 24938 ft 183 kts 12°
2026-04-24 16:31 40.66969 -73.54547 24937 ft 183 kts 12°
2026-04-24 16:32 40.68070 -73.53703 24937 ft 183 kts 12°
2026-04-24 16:32 40.69170 -73.52860 24940 ft 183 kts 12°
2026-04-24 16:32 40.70269 -73.52017 24942 ft 183 kts 12°
2026-04-24 16:32 40.71369 -73.51173 24942 ft 182 kts 12°
2026-04-24 16:33 40.72454 -73.50340 24940 ft 182 kts 12°
2026-04-24 16:33 40.73549 -73.49500 24941 ft 182 kts 12°
2026-04-24 16:33 40.74643 -73.48659 24939 ft 182 kts 12°
2026-04-24 16:33 40.75737 -73.47819 24939 ft 182 kts 12°
2026-04-24 16:34 40.76830 -73.46979 24942 ft 182 kts 12°
2026-04-24 16:34 40.77927 -73.46135 24941 ft 182 kts 12°
2026-04-24 16:34 40.79026 -73.45289 24940 ft 182 kts 12°
2026-04-24 16:34 40.80120 -73.44447 24940 ft 182 kts 12°
2026-04-24 16:35 40.81210 -73.43609 24939 ft 182 kts 12°
2026-04-24 16:35 40.82304 -73.42765 24940 ft 182 kts 12°
2026-04-24 16:35 40.83395 -73.41925 24938 ft 181 kts 12°
2026-04-24 16:35 40.84470 -73.41096 24939 ft 181 kts 12°
2026-04-24 16:36 40.85558 -73.40257 24935 ft 181 kts 11°
2026-04-24 16:36 40.86648 -73.39417 24937 ft 181 kts 12°
2026-04-24 16:36 40.87738 -73.38576 24934 ft 181 kts 11°
2026-04-24 16:36 40.88827 -73.37735 24931 ft 181 kts 11°
2026-04-24 16:37 40.89913 -73.36895 24933 ft 181 kts 11°
2026-04-24 16:37 40.91001 -73.36056 24931 ft 180 kts 11°
2026-04-24 16:37 40.91719 -73.35501 24929 ft 180 kts 11°
2026-04-24 16:37 40.93153 -73.34393 24928 ft 180 kts 11°
2026-04-24 16:38 40.94235 -73.33555 24929 ft 180 kts 11°
2026-04-24 16:38 40.95312 -73.32722 24924 ft 180 kts 11°
2026-04-24 16:38 40.96392 -73.31886 24924 ft 179 kts 11°
2026-04-24 16:38 40.97468 -73.31053 24924 ft 179 kts 11°
2026-04-24 16:39 40.98548 -73.30217 24922 ft 179 kts 11°
2026-04-24 16:39 40.99622 -73.29384 24924 ft 179 kts 11°
2026-04-24 16:39 41.00696 -73.28552 24926 ft 179 kts 11°
2026-04-24 16:39 41.01768 -73.27720 24929 ft 179 kts 11°
2026-04-24 16:40 41.02840 -73.26888 24929 ft 178 kts 11°
2026-04-24 16:40 41.03913 -73.26056 24925 ft 178 kts 11°
2026-04-24 16:40 41.04972 -73.25234 24926 ft 178 kts 11°
2026-04-24 16:40 41.06041 -73.24403 24927 ft 178 kts 11°
2026-04-24 16:41 41.07107 -73.23575 24928 ft 178 kts 11°
2026-04-24 16:41 41.08180 -73.22740 24929 ft 178 kts 11°
2026-04-24 16:41 41.09248 -73.21910 24930 ft 178 kts 11°
2026-04-24 16:41 41.10318 -73.21078 24935 ft 178 kts 11°
2026-04-24 16:42 41.11382 -73.20250 24933 ft 178 kts 11°
2026-04-24 16:42 41.12450 -73.19418 24928 ft 178 kts 11°
2026-04-24 16:42 41.13521 -73.18585 24931 ft 178 kts 11°
2026-04-24 16:42 41.14571 -73.17766 24934 ft 177 kts 11°
2026-04-24 16:43 41.15637 -73.16935 24928 ft 177 kts 11°
2026-04-24 16:43 41.16701 -73.16106 24928 ft 177 kts 11°
2026-04-24 16:43 41.17770 -73.15272 24930 ft 177 kts 11°
2026-04-24 16:43 41.18839 -73.14438 24926 ft 177 kts 10°
2026-04-24 16:44 41.19900 -73.13610 24934 ft 177 kts 11°
2026-04-24 16:44 41.20960 -73.12783 24929 ft 177 kts 11°
2026-04-24 16:44 41.22006 -73.11965 24927 ft 177 kts 10°
2026-04-24 16:44 41.23066 -73.11137 24927 ft 176 kts 10°
2026-04-24 16:45 41.23782 -73.10577 24928 ft 176 kts 10°
2026-04-24 16:45 41.24823 -73.09762 24930 ft 176 kts 10°
2026-04-24 16:45 41.25879 -73.08938 24928 ft 176 kts 10°
2026-04-24 16:45 41.26940 -73.08108 24931 ft 176 kts 10°
2026-04-24 16:46 41.28342 -73.07009 24931 ft 176 kts 10°
2026-04-24 16:46 41.29402 -73.06180 24913 ft 177 kts 10°
2026-04-24 16:46 41.30464 -73.05347 24914 ft 177 kts 10°
2026-04-24 16:46 41.31524 -73.04516 24915 ft 176 kts 10°
2026-04-24 16:47 41.32581 -73.03687 24916 ft 176 kts 10°
2026-04-24 16:47 41.33635 -73.02860 24916 ft 176 kts 10°
2026-04-24 16:47 41.34690 -73.02033 24914 ft 176 kts 10°
2026-04-24 16:47 41.35747 -73.01203 24914 ft 176 kts 10°
2026-04-24 16:48 41.36801 -73.00376 24915 ft 176 kts 10°
2026-04-24 16:48 41.37856 -72.99547 24917 ft 176 kts 10°
2026-04-24 16:48 41.38896 -72.98729 24932 ft 176 kts 10°
2026-04-24 16:48 41.39948 -72.97901 24927 ft 176 kts 10°
2026-04-24 16:49 41.41000 -72.97074 24931 ft 175 kts 10°
2026-04-24 16:49 41.42050 -72.96248 24922 ft 176 kts 10°
2026-04-24 16:49 41.43104 -72.95420 24924 ft 176 kts 10°
2026-04-24 16:49 41.44159 -72.94589 24920 ft 176 kts 10°
2026-04-24 16:50 41.44518 -72.94306 24922 ft 176 kts 10°
2026-04-24 16:50 41.46274 -72.92921 24918 ft 176 kts 10°
2026-04-24 16:50 41.47326 -72.92092 24922 ft 176 kts 10°
2026-04-24 16:50 41.48382 -72.91260 24920 ft 176 kts 10°
2026-04-24 16:51 41.49433 -72.90430 24925 ft 176 kts
2026-04-24 16:51 41.50488 -72.89597 24925 ft 175 kts
2026-04-24 16:51 41.51521 -72.88782 24920 ft 175 kts
2026-04-24 16:51 41.52575 -72.87950 24919 ft 175 kts
2026-04-24 16:52 41.53625 -72.87120 24919 ft 175 kts
2026-04-24 16:52 41.54676 -72.86290 24919 ft 176 kts
2026-04-24 16:52 41.55732 -72.85454 24923 ft 176 kts
2026-04-24 16:52 41.56789 -72.84619 24924 ft 177 kts
2026-04-24 16:53 41.57852 -72.83778 24920 ft 178 kts 10°
2026-04-24 16:53 41.58916 -72.82933 24921 ft 178 kts
2026-04-24 16:53 41.59967 -72.82102 24920 ft 177 kts
2026-04-24 16:53 41.61021 -72.81265 24916 ft 176 kts
2026-04-24 16:54 41.62071 -72.80433 24916 ft 175 kts
2026-04-24 16:54 41.63118 -72.79603 24920 ft 175 kts
2026-04-24 16:54 41.64166 -72.78773 24922 ft 174 kts
2026-04-24 16:54 41.65197 -72.77955 24937 ft 174 kts
2026-04-24 16:55 41.66243 -72.77125 24940 ft 174 kts
2026-04-24 16:55 41.67286 -72.76296 24938 ft 174 kts
2026-04-24 16:55 41.68331 -72.75467 24944 ft 174 kts
2026-04-24 16:55 41.69374 -72.74638 24937 ft 175 kts
2026-04-24 16:56 41.70419 -72.73807 24940 ft 175 kts
2026-04-24 16:56 41.71469 -72.72975 24988 ft 178 kts
2026-04-24 16:56 41.72190 -72.72408 24940 ft 181 kts 10°
2026-04-24 16:56 41.73623 -72.71261 24942 ft 181 kts 11°
2026-04-24 16:57 41.74706 -72.70395 24937 ft 181 kts 11°
2026-04-24 16:57 41.75792 -72.69530 24940 ft 182 kts 11°
2026-04-24 16:57 41.76882 -72.68663 24942 ft 182 kts 11°
2026-04-24 16:57 41.77972 -72.67794 24942 ft 182 kts 12°
2026-04-24 16:58 41.78698 -72.67215 24942 ft 183 kts 12°
2026-04-24 16:58 41.79793 -72.66341 24942 ft 183 kts 12°
2026-04-24 16:58 41.80888 -72.65467 24943 ft 183 kts 12°
2026-04-24 16:58 41.81987 -72.64590 24942 ft 184 kts 12°
2026-04-24 16:59 41.83084 -72.63713 24939 ft 184 kts 13°
2026-04-24 16:59 41.84185 -72.62834 24941 ft 184 kts 13°
2026-04-24 16:59 41.86394 -72.61068 24930 ft 185 kts 13°
2026-04-24 17:00 41.87505 -72.60180 24930 ft 186 kts 14°
2026-04-24 17:00 41.89718 -72.58407 24932 ft 186 kts 14°
2026-04-24 17:00 41.90830 -72.57516 24929 ft 187 kts 14°
2026-04-24 17:01 41.93064 -72.55726 24929 ft 187 kts 15°
2026-04-24 17:01 41.94185 -72.54828 24928 ft 188 kts 15°
2026-04-24 17:02 41.96433 -72.53022 24930 ft 188 kts 15°
2026-04-24 17:02 41.97562 -72.52117 24931 ft 189 kts 15°
2026-04-24 17:02 41.98689 -72.51211 24928 ft 189 kts 16°
2026-04-24 17:02 41.99804 -72.50315 24931 ft 189 kts 16°
2026-04-24 17:03 42.02075 -72.48489 24928 ft 190 kts 16°
2026-04-24 17:03 42.03210 -72.47575 24919 ft 190 kts 16°
2026-04-24 17:03 42.04348 -72.46660 24919 ft 191 kts 17°
2026-04-24 17:04 42.05487 -72.45743 24918 ft 191 kts 17°
2026-04-24 17:04 42.07772 -72.43900 24920 ft 191 kts 17°
2026-04-24 17:04 42.08916 -72.42979 24918 ft 192 kts 17°
2026-04-24 17:05 42.10047 -72.42067 24917 ft 192 kts 17°
2026-04-24 17:05 42.11195 -72.41140 24918 ft 192 kts 17°
2026-04-24 17:05 42.13486 -72.39290 24919 ft 192 kts 17°
2026-04-24 17:06 42.14635 -72.38361 24912 ft 192 kts 17°
2026-04-24 17:06 42.16927 -72.36507 24917 ft 192 kts 17°
2026-04-24 17:06 42.18074 -72.35580 24911 ft 192 kts 18°
2026-04-24 17:07 42.19224 -72.34649 24915 ft 193 kts 18°
2026-04-24 17:07 42.20372 -72.33718 24912 ft 193 kts 18°
2026-04-24 17:07 42.22652 -72.31872 24909 ft 191 kts 17°
2026-04-24 17:08 42.24930 -72.30023 24906 ft 191 kts 18°
2026-04-24 17:08 42.26072 -72.29099 24914 ft 191 kts 18°
2026-04-24 17:08 42.27210 -72.28174 24913 ft 191 kts 18°
2026-04-24 17:09 42.29488 -72.26323 24915 ft 191 kts 18°
2026-04-24 17:09 42.31754 -72.24480 24918 ft 191 kts 18°
2026-04-24 17:10 42.32892 -72.23554 24933 ft 190 kts 17°
2026-04-24 17:10 42.34412 -72.22318 24933 ft 191 kts 17°